This demonstration page uses our WeatherBlox Daily Observations layout. Learn more.

Left ArrowRight Arrow

Hourly Observations for January 31, 2022

Temp ( °F °C ) Dew Point ( °F °C ) Humidity (%) Winds ( mph kmh ) Pressure ( in mb ) Visibility ( mi km ) Precip ( " mm )
12:15 am 00:15 Clear 19 -7 18 -8 93 93 Calm 30.16 1021 10 16 N/A
12:35 am 00:35 Clear 19 -7 18 -8 93 93 Calm 30.16 1021 10 16 N/A
12:55 am 00:55 Clear 19 -7 18 -8 93 93 Calm 30.16 1021 10 16 N/A
1:15 am 01:15 Partly Cloudy 19 -7 18 -8 93 93 Calm 30.15 1021 10 16 N/A
1:35 am 01:35 Clear 19 -7 18 -8 93 93 Calm 30.15 1021 7 11 N/A
1:55 am 01:55 Clear 18 -8 18 -8 100 100 Calm 30.16 1021 7 11 N/A
2:15 am 02:15 Clear 16 -9 16 -9 100 100 Calm 30.17 1022 7 11 N/A
2:35 am 02:35 Mostly Cloudy 16 -9 16 -9 100 100 Calm 30.17 1022 7 11 N/A
2:55 am 02:55 Mostly Cloudy 18 -8 18 -8 100 100 Calm 30.17 1022 7 11 N/A
3:15 am 03:15 Partly Cloudy 18 -8 18 -8 100 100 Calm 30.18 1022 7 11 N/A
3:35 am 03:35 Partly Cloudy 16 -9 16 -9 100 100 Calm 30.18 1022 7 11 N/A
3:55 am 03:55 Clear 14 -10 14 -10 100 100 Calm 30.18 1022 7 11 N/A
4:15 am 04:15 Clear 14 -10 14 -10 100 100 Calm 30.18 1022 7 11 N/A
4:35 am 04:35 Clear 14 -10 14 -10 100 100 Calm 30.17 1022 5 8 N/A
4:55 am 04:55 Clear 14 -10 14 -10 100 100 Calm 30.18 1022 5 8 N/A
5:15 am 05:15 Clear 12 -11 12 -11 100 100 Calm 30.20 1023 7 11 N/A
5:35 am 05:35 Clear 12 -11 12 -11 100 100 Calm 30.21 1023 5 8 N/A
5:55 am 05:55 Clear 14 -10 14 -10 100 100 Calm 30.20 1023 5 8 N/A
6:15 am 06:15 Clear 10 -12 10 -12 100 100 N 3 6 30.21 1023 5 8 N/A
6:35 am 06:35 Clear 12 -11 12 -11 100 100 Calm 30.22 1023 5 8 N/A
6:55 am 06:55 Clear 12 -11 12 -11 100 100 Calm 30.22 1023 5 8 N/A
7:15 am 07:15 Clear 12 -11 12 -11 100 100 E 3 6 30.22 1023 5 8 N/A
7:35 am 07:35 Clear 14 -10 14 -10 100 100 Calm 30.22 1023 5 8 N/A
7:55 am 07:55 Sunny 12 -11 10 -12 92 92 Calm 30.24 1024 7 11 N/A
8:15 am 08:15 Sunny 10 -12 10 -12 100 100 Calm 30.25 1024 7 11 N/A
8:35 am 08:35 Sunny 14 -10 12 -11 92 92 Calm 30.25 1024 7 11 N/A
8:55 am 08:55 Sunny 16 -9 16 -9 100 100 Calm 30.25 1024 5 8 N/A
9:15 am 09:15 Sunny 19 -7 19 -7 100 100 Calm 30.24 1024 5 8 N/A
9:35 am 09:35 Sunny 23 -5 19 -7 86 86 E 5 7 30.24 1024 7 11 N/A
9:55 am 09:55 Sunny 25 -4 19 -7 80 80 E 6 9 30.24 1024 10 16 N/A
10:15 am 10:15 Sunny 27 -3 18 -8 69 69 E 8 13 30.24 1024 10 16 N/A
10:35 am 10:35 Sunny 28 -2 18 -8 64 64 SE 7 11 30.24 1024 10 16 N/A
10:55 am 10:55 Sunny 28 -2 18 -8 64 64 ESE 7 11 30.24 1024 10 16 N/A
11:15 am 11:15 Sunny 30 -1 18 -8 59 59 ESE 9 15 30.24 1024 10 16 N/A
11:35 am 11:35 Sunny 30 -1 19 -7 64 64 SE 6 9 30.23 1024 10 16 N/A
11:55 am 11:55 Sunny 32 0 18 -8 55 55 SE 6 9 30.23 1024 10 16 N/A
12:15 pm 12:15 Sunny 32 0 18 -8 55 55 SSE 7 11 30.22 1023 10 16 N/A
12:35 pm 12:35 Sunny 32 0 19 -7 60 60 S 6 9 30.21 1023 10 16 N/A
12:55 pm 12:55 Sunny 34 1 19 -7 56 56 SSE 8 13 30.20 1023 10 16 N/A
1:15 pm 13:15 Sunny 34 1 19 -7 56 56 SE 8 13 30.18 1022 10 16 N/A
1:35 pm 13:35 Sunny 36 2 19 -7 52 52 SSE 5 7 30.17 1022 10 16 N/A
1:55 pm 13:55 Sunny 36 2 19 -7 52 52 SSE 9 15 30.17 1022 10 16 N/A
2:15 pm 14:15 Sunny 36 2 19 -7 52 52 SSE 7 11 30.17 1022 10 16 N/A
2:35 pm 14:35 Sunny 36 2 19 -7 52 52 SSE 7 11 30.16 1021 10 16 N/A
2:55 pm 14:55 Sunny 37 3 19 -7 48 48 SE 7 11 30.15 1021 10 16 N/A
3:15 pm 15:15 Sunny 37 3 19 -7 48 48 SE 7 11 30.14 1021 10 16 N/A
3:35 pm 15:35 Sunny 37 3 21 -6 52 52 SSE 8 13 30.14 1021 10 16 N/A
3:55 pm 15:55 Sunny 37 3 21 -6 52 52 SSE 7 11 30.14 1021 10 16 N/A
4:15 pm 16:15 Sunny 37 3 21 -6 52 52 S 9 15 30.13 1020 10 16 N/A
4:35 pm 16:35 Sunny 37 3 21 -6 52 52 SSE 7 11 30.14 1021 10 16 N/A
4:55 pm 16:55 Sunny 36 2 21 -6 56 56 SSE 8 13 30.15 1021 10 16 N/A
5:15 pm 17:15 Sunny 36 2 21 -6 56 56 SSE 8 13 30.15 1021 10 16 N/A
5:35 pm 17:35 Sunny 34 1 21 -6 60 60 SSE 6 9 30.15 1021 10 16 N/A
5:55 pm 17:55 Sunny 34 1 21 -6 60 60 SE 3 6 30.15 1021 10 16 N/A
6:15 pm 18:15 Clear 32 0 21 -6 64 64 S 3 6 30.17 1022 10 16 N/A
6:35 pm 18:35 Clear 32 0 21 -6 64 64 SSE 3 6 30.17 1022 10 16 N/A
6:55 pm 18:55 Clear 30 -1 21 -6 69 69 ESE 3 6 30.18 1022 10 16 N/A
7:15 pm 19:15 Clear 32 0 21 -6 64 64 SSE 3 6 30.19 1022 10 16 N/A
7:35 pm 19:35 Clear 28 -2 21 -6 74 74 SE 3 6 30.19 1022 10 16 N/A
7:55 pm 19:55 Clear 28 -2 23 -5 80 80 SE 3 6 30.19 1022 10 16 N/A
8:15 pm 20:15 Clear 32 0 23 -5 69 69 ESE 3 6 30.19 1022 10 16 N/A
8:35 pm 20:35 Clear 32 0 23 -5 69 69 ESE 5 7 30.19 1022 10 16 N/A
8:55 pm 20:55 Partly Cloudy 32 0 23 -5 69 69 SE 7 11 30.18 1022 10 16 N/A
9:15 pm 21:15 Partly Cloudy 32 0 23 -5 69 69 SE 6 9 30.18 1022 10 16 N/A
9:35 pm 21:35 Partly Cloudy 32 0 25 -4 75 75 SE 8 13 30.17 1022 10 16 N/A
9:55 pm 21:55 Partly Cloudy 32 0 25 -4 75 75 SE 6 9 30.17 1022 10 16 N/A
10:15 pm 22:15 Mostly Cloudy 32 0 25 -4 75 75 SE 6 9 30.17 1022 10 16 N/A
10:35 pm 22:35 Cloudy 32 0 25 -4 75 75 SE 9 15 30.16 1021 10 16 N/A
10:55 pm 22:55 Cloudy 32 0 25 -4 75 75 SE 7 11 30.16 1021 10 16 N/A
11:15 pm 23:15 Cloudy 32 0 25 -4 75 75 SE 7 11 30.16 1021 10 16 N/A
11:35 pm 23:35 Cloudy 32 0 25 -4 75 75 SE 9 15 30.16 1021 10 16 N/A
11:55 pm 23:55 Cloudy 34 1 25 -4 70 70 SSE 9 15 30.16 1021 10 16 N/A

Powered by AerisWeather